Tiempo cada hora Muroms'ke

Hoy, 22 Octubre, Jueves

Tiempo Temperatura Precipitaciones Viento Presión Humedad
00:00 +10°C° 0 mm 1 mps 748 mmHg 66%
01:00 +10°C° 0 mm 1 mps 748 mmHg 64%
02:00 +10°C° 0 mm 1 mps 748 mmHg 63%
03:00 +10°C° 0 mm 1 mps 748 mmHg 61%
04:00 +10°C° 0 mm 1 mps 748 mmHg 59%
05:00 +10°C° 0 mm 1 mps 748 mmHg 58%
06:00 +12°C° 0 mm 1 mps 748 mmHg 55%
07:00 +13°C° 0 mm 2 mps 748 mmHg 51%
08:00 +14°C° 0 mm 2 mps 748 mmHg 48%
09:00 +16°C° 0 mm 2 mps 748 mmHg 45%
10:00 +17°C° 0 mm 2 mps 748 mmHg 42%
11:00 +19°C° 0 mm 2 mps 748 mmHg 39%
12:00 +20°C° 0 mm 2 mps 748 mmHg 38%
13:00 +20°C° 0 mm 3 mps 748 mmHg 38%
14:00 +21°C° 0 mm 3 mps 748 mmHg 38%
15:00 +19°C° 0 mm 3 mps 748 mmHg 48%
16:00 +17°C° 0 mm 3 mps 748 mmHg 57%
17:00 +15°C° 0 mm 2 mps 747 mmHg 67%
18:00 +15°C° 0 mm 2 mps 747 mmHg 71%
19:00 +14°C° 0 mm 2 mps 748 mmHg 75%
20:00 +14°C° 0 mm 2 mps 748 mmHg 79%
21:00 +13°C° 0 mm 2 mps 748 mmHg 78%
22:00 +13°C° 0 mm 2 mps 748 mmHg 77%
23:00 +13°C° 0 mm 1 mps 747 mmHg 76%

Mañana, 23 Octubre, Viernes

Tiempo Temperatura Precipitaciones Viento Presión Humedad
00:00 +13°C° 0 mm 1 mps 747 mmHg 75%
01:00 +13°C° 0 mm 1 mps 747 mmHg 73%
02:00 +13°C° 0 mm 1 mps 747 mmHg 71%
03:00 +13°C° 0 mm 1 mps 747 mmHg 70%
04:00 +13°C° 0 mm 1 mps 747 mmHg 69%
05:00 +13°C° 0 mm 2 mps 747 mmHg 68%
06:00 +14°C° 0 mm 2 mps 747 mmHg 66%
07:00 +15°C° 0 mm 1 mps 747 mmHg 64%
08:00 +16°C° 0 mm 1 mps 747 mmHg 62%
09:00 +17°C° 0 mm 2 mps 747 mmHg 56%
10:00 +19°C° 0 mm 2 mps 747 mmHg 51%
11:00 +21°C° 0 mm 2 mps 747 mmHg 45%
12:00 +21°C° 0 mm 2 mps 747 mmHg 43%
13:00 +23°C° 0 mm 2 mps 747 mmHg 41%
14:00 +23°C° 0 mm 2 mps 746 mmHg 38%
15:00 +20°C° 0 mm 2 mps 746 mmHg 48%
16:00 +18°C° 0 mm 2 mps 746 mmHg 58%
17:00 +16°C° 0 mm 2 mps 745 mmHg 68%
18:00 +16°C° 0 mm 2 mps 745 mmHg 73%
19:00 +15°C° 0 mm 2 mps 745 mmHg 78%
20:00 +14°C° 0 mm 2 mps 745 mmHg 82%
21:00 +14°C° 0 mm 2 mps 745 mmHg 82%
22:00 +14°C° 0 mm 2 mps 744 mmHg 82%
23:00 +14°C° 0 mm 2 mps 744 mmHg 82%

Pasado mañana, 24 Octubre, Sábado

Tiempo Temperatura Precipitaciones Viento Presión Humedad
00:00 +13°C° 0 mm 2 mps 744 mmHg 80%
01:00 +13°C° 0 mm 2 mps 744 mmHg 78%
02:00 +13°C° 0 mm 2 mps 744 mmHg 76%
03:00 +13°C° 0 mm 2 mps 743 mmHg 75%
04:00 +13°C° 0 mm 1 mps 743 mmHg 73%
05:00 +13°C° 0 mm 1 mps 743 mmHg 72%
06:00 +14°C° 0 mm 1 mps 743 mmHg 68%
07:00 +15°C° 0 mm 1 mps 743 mmHg 63%
08:00 +18°C° 0 mm 1 mps 743 mmHg 59%
09:00 +18°C° 0 mm 2 mps 743 mmHg 54%
10:00 +20°C° 0 mm 2 mps 743 mmHg 49%
11:00 +23°C° 0 mm 2 mps 743 mmHg 44%
12:00 +24°C° 0 mm 2 mps 743 mmHg 43%
13:00 +24°C° 0 mm 2 mps 743 mmHg 42%
14:00 +25°C° 0 mm 3 mps 743 mmHg 41%
15:00 +23°C° 0 mm 2 mps 742 mmHg 50%
16:00 +20°C° 0 mm 2 mps 742 mmHg 60%
17:00 +18°C° 0 mm 2 mps 742 mmHg 69%
18:00 +18°C° 0 mm 2 mps 742 mmHg 70%
19:00 +17°C° 0 mm 2 mps 742 mmHg 72%
20:00 +18°C° 0 mm 1 mps 742 mmHg 74%
21:00 +16°C° 0 mm 1 mps 742 mmHg 73%
22:00 +16°C° 0 mm 1 mps 742 mmHg 71%
23:00 +16°C° 0 mm 1 mps 742 mmHg 70%

, 25 Octubre, Domingo

Tiempo Temperatura Precipitaciones Viento Presión Humedad
00:00 +16°C° 0 mm 1 mps 742 mmHg 71%
01:00 +15°C° 0 mm 1 mps 742 mmHg 71%
02:00 +15°C° 0 mm 1 mps 742 mmHg 72%
03:00 +15°C° 0 mm 1 mps 742 mmHg 74%
04:00 +15°C° 0 mm 1 mps 742 mmHg 76%
05:00 +14°C° 0 mm 1 mps 742 mmHg 77%
06:00 +15°C° 0 mm 1 mps 742 mmHg 73%
07:00 +16°C° 0 mm 1 mps 742 mmHg 69%
08:00 +18°C° 0 mm 1 mps 742 mmHg 65%
09:00 +20°C° 0 mm 1 mps 743 mmHg 61%
10:00 +21°C° 0 mm 1 mps 743 mmHg 57%
11:00 +22°C° 0 mm 1 mps 743 mmHg 52%
12:00 +21°C° 0 mm 2 mps 743 mmHg 53%
13:00 +21°C° 0 mm 2 mps 743 mmHg 54%
14:00 +21°C° 0 mm 2 mps 743 mmHg 55%
15:00 +19°C° 0 mm 2 mps 743 mmHg 63%
16:00 +18°C° 0 mm 2 mps 743 mmHg 70%
17:00 +17°C° 0 mm 2 mps 743 mmHg 77%
18:00 +16°C° 0 mm 2 mps 743 mmHg 79%
19:00 +16°C° 0 mm 1 mps 743 mmHg 80%
20:00 +15°C° 0 mm 1 mps 744 mmHg 82%
21:00 +15°C° 0 mm 1 mps 744 mmHg 82%
22:00 +15°C° 0 mm 1 mps 744 mmHg 82%
23:00 +15°C° 0 mm 1 mps 744 mmHg 82%

25 Octubre, Domingo

Tiempo Temperatura Precipitaciones Viento Presión Humedad
00:00 +16°C° 0 mm 1 mps 742 mmHg 71%
01:00 +15°C° 0 mm 1 mps 742 mmHg 71%
02:00 +15°C° 0 mm 1 mps 742 mmHg 72%
03:00 +15°C° 0 mm 1 mps 742 mmHg 74%
04:00 +15°C° 0 mm 1 mps 742 mmHg 76%
05:00 +14°C° 0 mm 1 mps 742 mmHg 77%
06:00 +15°C° 0 mm 1 mps 742 mmHg 73%
07:00 +16°C° 0 mm 1 mps 742 mmHg 69%
08:00 +18°C° 0 mm 1 mps 742 mmHg 65%
09:00 +20°C° 0 mm 1 mps 743 mmHg 61%
10:00 +21°C° 0 mm 1 mps 743 mmHg 57%
11:00 +22°C° 0 mm 1 mps 743 mmHg 52%
12:00 +21°C° 0 mm 2 mps 743 mmHg 53%
13:00 +21°C° 0 mm 2 mps 743 mmHg 54%
14:00 +21°C° 0 mm 2 mps 743 mmHg 55%
15:00 +19°C° 0 mm 2 mps 743 mmHg 63%
16:00 +18°C° 0 mm 2 mps 743 mmHg 70%
17:00 +17°C° 0 mm 2 mps 743 mmHg 77%
18:00 +16°C° 0 mm 2 mps 743 mmHg 79%
19:00 +16°C° 0 mm 1 mps 743 mmHg 80%
20:00 +15°C° 0 mm 1 mps 744 mmHg 82%
21:00 +15°C° 0 mm 1 mps 744 mmHg 82%
22:00 +15°C° 0 mm 1 mps 744 mmHg 82%
23:00 +15°C° 0 mm 1 mps 744 mmHg 82%

26 Octubre, Lunes

Tiempo Temperatura Precipitaciones Viento Presión Humedad
00:00 +15°C° 0 mm 1 mps 744 mmHg 83%
01:00 +14°C° 0 mm 2 mps 744 mmHg 84%
02:00 +14°C° 0 mm 2 mps 744 mmHg 85%
03:00 +14°C° 0 mm 2 mps 744 mmHg 84%
04:00 +14°C° 0 mm 2 mps 744 mmHg 83%
05:00 +14°C° 0 mm 2 mps 744 mmHg 82%
06:00 +14°C° 0 mm 3 mps 744 mmHg 79%
07:00 +16°C° 0 mm 3 mps 744 mmHg 75%
08:00 +16°C° 0 mm 3 mps 744 mmHg 71%
09:00 +18°C° 0 mm 4 mps 744 mmHg 66%
10:00 +19°C° 0 mm 4 mps 744 mmHg 60%
11:00 +20°C° 0 mm 4 mps 745 mmHg 55%
12:00 +20°C° 0 mm 4 mps 744 mmHg 55%
13:00 +20°C° 0 mm 5 mps 744 mmHg 54%
14:00 +21°C° 0 mm 5 mps 744 mmHg 54%
15:00 +19°C° 0 mm 5 mps 744 mmHg 59%
16:00 +18°C° 0 mm 4 mps 744 mmHg 64%
17:00 +17°C° 0 mm 4 mps 743 mmHg 69%
18:00 +17°C° 0 mm 4 mps 743 mmHg 71%
19:00 +15°C° 0 mm 4 mps 743 mmHg 73%
20:00 +15°C° 0 mm 4 mps 743 mmHg 75%
21:00 +15°C° 0 mm 4 mps 743 mmHg 76%
22:00 +15°C° 0 mm 4 mps 743 mmHg 76%
23:00 +15°C° 0 mm 4 mps 743 mmHg 77%

27 Octubre, Martes

Tiempo Temperatura Precipitaciones Viento Presión Humedad
00:00 +15°C° 0 mm 4 mps 743 mmHg 76%
01:00 +15°C° 0 mm 4 mps 743 mmHg 75%
02:00 +15°C° 0 mm 4 mps 743 mmHg 74%
03:00 +15°C° 0 mm 4 mps 743 mmHg 73%
04:00 +15°C° 0 mm 4 mps 743 mmHg 73%
05:00 +14°C° 0 mm 4 mps 743 mmHg 73%
06:00 +15°C° 0 mm 4 mps 744 mmHg 69%
07:00 +15°C° 0 mm 4 mps 744 mmHg 65%
08:00 +17°C° 0 mm 4 mps 744 mmHg 61%
09:00 +18°C° 0 mm 4 mps 744 mmHg 55%
10:00 +19°C° 0 mm 4 mps 744 mmHg 49%
11:00 +21°C° 0 mm 5 mps 744 mmHg 43%
12:00 +21°C° 0 mm 5 mps 744 mmHg 43%
13:00 +21°C° 0 mm 5 mps 744 mmHg 43%
14:00 +21°C° 0 mm 5 mps 744 mmHg 42%
15:00 +20°C° 0 mm 4 mps 744 mmHg 48%
16:00 +19°C° 0 mm 4 mps 744 mmHg 53%
17:00 +17°C° 0 mm 3 mps 744 mmHg 59%
18:00 +17°C° 0 mm 3 mps 744 mmHg 60%
19:00 +17°C° 0 mm 3 mps 744 mmHg 61%
20:00 +16°C° 0 mm 3 mps 744 mmHg 61%
21:00 +16°C° 0 mm 3 mps 744 mmHg 63%
22:00 +14°C° 0 mm 3 mps 744 mmHg 65%
23:00 +14°C° 0 mm 3 mps 744 mmHg 66%
Mostrar más

Necesitamos Su Consentimiento

Meteoprog y nuestros Proveedores de Servicios pueden almacenar y acceder a sus datos personales como cookies, identificadores de dispositivo u otras tecnologías similares de su dispositivo y procesar dichos datos para personalizar contenido y anuncios, además de ofrecer funciones de redes sociales y analizar el tráfico.

  • Almacenar y/o acceder a información en su dispositivo

    Se puede almacenar o acceder a cookies, identificadores de dispositivo u otra información de su dispositivo para los fines anteriormente indicados.

  • Anuncios y contenido personalizados, medición de anuncios y contenido, percepciones del público, y desarrollo de productos

    Los anuncios y el contenido pueden personalizarse en base a su perfil. Se pueden añadir más datos para personalizar mejor los anuncios y contenidos. Se puede medir el rendimiento de los anuncios y contenidos. Se puede obtener la percepción sobre el público que ha visto los anuncios y contenidos. Dichos datos pueden usarse para desarrollar o mejorar la experiencia del usuario, sistemas y software.

Al hacer clic en ‘Estoy De Acuerdo’ usted permitirá el uso de las cookies, identificadores de dispositivo, balizas web u otras tecnologías similares indicadas. Su configuración puede cambiarse desde el navegador de su dispositivo.

Para ciertos fines, los intereses legítimos pueden ser considerados por encima del consentimiento. Puede leer más sobre ello en nuestra Política de Privacidad y Cookies.